Погода в Бирюче

Россия / Белгородская область     50°31′47″N   38°25′23″E
темп.,
°C
ветер,
м/с
пор.,
м/с
влажн.,
%
обл.,
%
осадки,
мм/ч
давл.,
гПа
погр.,
м
19 сентября, вс
вс1900:00+11вюв91759100 0.0 1015475
03:00+11вюв81655100 0.0 1014432
06:00+11вюв81655100 0.0 1013468
09:00+15юв81447100 0.0 1012632
12:00+15юв71352100 0.0 1011727
15:00+14ююв61290100 5.3 1010807
18:00+15ююв71492100 5.4 1008822
21:00+15ю4994100 6.0 1008429
20 сентября, пн
пн2000:00+14ююв489877 0.1 1008239
03:00+14ююв249518 0.6 1007128
06:00+12ююв369820 0.8 1007114
09:00+17ююз587434 1.1 1007401
12:00+18юз786255 0.2 10081281
15:00+18юз8104169 0.4 10082107
18:00+13зюз485498 0.0 1010981
21:00+12зюз145796 0.0 1011307
21 сентября, вт
вт2100:00+11ююз2460100 0.0 1012156
03:00+11юз3663100 0.0 1012503
06:00+10юз367298 0.0 1012425
09:00+12юз3470100 0.0 1012681
12:00+13юз4560100 0.1 10111289
15:00+13юз5661100 0.3 10111080
18:00+10з5771100 0.1 1012668
21:00+9з4669100 0.1 1012787
22 сентября, ср
ср2200:00+8з4679100 0.0 1012693
03:00+8зюз5684100 0.0 1012755
06:00+7з5685100 0.0 1013835
09:00+6зюз5683100 0.1 1013797
12:00+8зюз5674100 0.1 1014872
15:00+8з4571100 0.1 1014956
18:00+8з3473100 0.0 1015660
21:00+7зюз2475100 0.0 1016523
23 сентября, чт
чт2300:00+7ююз1277100 0.0 101696
03:00+7ю1276100 0.0 101570
06:00+7юв2373100 0.0 1015110
09:00+9ююв4564100 0.0 10161022
12:00+11ююв3558100 0.0 10151289
15:00+12вюв3451100 0.1 10141266
18:00+12вюв1154100 0.0 101422
21:00+11ссз1260100 0.0 101358